Starlink 5334

operational
NORAD ID: 56509 Int'l Des: 2023-065 Owner: SPXS Country: US Constellation: starlink
LEOCIRCULAR

About Starlink 5334

Description loading...

Live Position

Loading 3D Globe...

Upcoming Passes

Altitude History

Altitude vs Time

uPlot chart will show altitude changes over time

Two-Line Element Set

1 56509U 23065G 25306.38836762 .00006123 00000-0 46747-3 0 9993
2 56509 43.0021 182.2057 0001589 267.6862 92.3799 15.02576772137475
Epoch: Nov 2, 2025 • Age: 28 hours

Current Status

Altitude 562.1 km
Velocity 7.58 km/s
Sub-Earth Point -17.30°S, 131.89°E
Launch Date May 14, 2023
Age 2.4 years
Type internet

Technical Details

Classification Payload
Mass 305.00 kg
Dry Mass 290.00 kg
Total Mass 305.00 kg
Length 0.20 m
Diameter 2.80 m
Span 9.00 m
Shape Box + pan
Manufacturer SPXS
Bus Type Starlink
Phase Status In Orbit
Owner/State SPXS/US

Large Constellations

Loading constellations...